TimeEST,TemperatureF,Dew PointF,Humidity,Sea Level PressureIn,VisibilityMPH,Wind Direction,Wind SpeedMPH,Gust SpeedMPH,PrecipitationIn,Events,Conditions,WindDirDegrees,DateUTC
12:53 AM,35.1,30.0,82,30.25,10.0,Calm,Calm,-,N/A,,Overcast,0,2013-02-26 05:53:00
1:53 AM,34.0,28.9,82,30.25,10.0,Calm,Calm,-,N/A,,Overcast,0,2013-02-26 06:53:00
2:53 AM,34.0,28.9,82,30.29,10.0,Calm,Calm,-,N/A,,Overcast,0,2013-02-26 07:53:00
3:53 AM,36.0,30.9,82,30.28,10.0,Calm,Calm,-,N/A,,Overcast,0,2013-02-26 08:53:00
4:53 AM,35.1,30.9,85,30.29,10.0,Calm,Calm,-,N/A,,Overcast,0,2013-02-26 09:53:00
5:02 AM,35.6,30.2,81,30.28,10.0,Calm,Calm,-,N/A,,Overcast,0,2013-02-26 10:02:00
5:20 AM,35.6,30.2,81,30.29,10.0,Calm,Calm,-,N/A,,Overcast,0,2013-02-26 10:20:00
5:53 AM,36.0,30.9,82,30.29,10.0,ENE,3.5,-,N/A,,Overcast,60,2013-02-26 10:53:00
6:53 AM,37.0,30.9,79,30.29,10.0,ENE,4.6,-,N/A,,Overcast,60,2013-02-26 11:53:00
7:53 AM,37.9,30.9,76,30.30,10.0,Calm,Calm,-,N/A,,Overcast,0,2013-02-26 12:53:00
8:53 AM,41.0,28.9,62,30.32,10.0,Variable,3.5,-,N/A,,Overcast,0,2013-02-26 13:53:00
9:53 AM,41.0,28.9,62,30.33,10.0,East,6.9,-,N/A,,Overcast,100,2013-02-26 14:53:00
10:53 AM,42.1,30.0,62,30.32,10.0,ESE,10.4,-,N/A,,Overcast,110,2013-02-26 15:53:00
11:53 AM,42.1,28.0,58,30.32,10.0,ESE,10.4,-,N/A,,Overcast,120,2013-02-26 16:53:00
12:53 PM,43.0,30.9,62,30.29,10.0,East,10.4,-,N/A,,Scattered Clouds,90,2013-02-26 17:53:00
1:53 PM,41.0,32.0,70,30.28,10.0,East,11.5,17.3,N/A,,Overcast,100,2013-02-26 18:53:00
2:07 PM,41.0,32.0,70,30.27,10.0,ESE,8.1,-,N/A,,Overcast,110,2013-02-26 19:07:00
2:53 PM,41.0,30.9,67,30.27,10.0,East,10.4,-,N/A,,Scattered Clouds,100,2013-02-26 19:53:00
3:53 PM,39.9,30.0,68,30.25,10.0,East,9.2,-,N/A,,Scattered Clouds,90,2013-02-26 20:53:00
4:53 PM,39.0,28.0,65,30.22,10.0,East,10.4,16.1,N/A,,Clear,100,2013-02-26 21:53:00
5:53 PM,37.9,30.0,73,30.20,10.0,East,10.4,-,N/A,,Partly Cloudy,80,2013-02-26 22:53:00
6:53 PM,39.0,30.0,70,30.18,10.0,East,11.5,19.6,N/A,,Clear,90,2013-02-26 23:53:00
7:53 PM,39.0,30.0,70,30.17,10.0,East,8.1,18.4,0.00,Rain,Light Rain,80,2013-02-27 00:53:00
8:23 PM,39.2,30.2,70,30.15,10.0,East,11.5,16.1,0.00,Rain,Light Rain,90,2013-02-27 01:23:00
8:53 PM,39.0,32.0,76,30.14,10.0,East,10.4,20.7,0.01,Rain,Light Rain,80,2013-02-27 01:53:00
9:19 PM,37.4,32.0,81,30.11,10.0,East,12.7,20.7,0.00,Rain,Light Rain,90,2013-02-27 02:19:00
9:53 PM,37.9,33.1,83,30.09,8.0,East,11.5,20.7,0.01,Rain,Light Rain,80,2013-02-27 02:53:00
10:12 PM,37.4,33.8,87,30.06,6.0,East,13.8,19.6,0.02,Rain,Light Rain,80,2013-02-27 03:12:00
10:53 PM,37.9,34.0,86,30.05,9.0,East,13.8,21.9,0.04,Rain,Light Rain,80,2013-02-27 03:53:00
11:45 PM,39.2,35.6,87,30.00,5.0,East,17.3,27.6,0.06,Rain,Rain,80,2013-02-27 04:45:00
11:53 PM,39.0,35.1,86,29.99,5.0,East,12.7,27.6,0.07,Rain,Rain,80,2013-02-27 04:53:00